Hourly Data Report for October 05, 2017

All times are specified in Local Standard Time (LST). Add 1 hour to adjust for Daylight Saving Time where and when it is observed.

RAE LAKES
NORTHWEST TERRITORIES

64°06'42.078" N
117°19'40.086" W
223.20 m
2203359
71165
WYH

Download Data

Hourly Data (October 2017)
Hourly Data Report for October 5, 2017
Temp Definition
°C
Dew Point Temp Definition
°C
Rel Hum Definition
%
Wind Dir Definition
10's deg

Wind Spd Definition
km/h
Visibility Definition
km
Stn Press Definition
kPa
Hmdx Definition


Wind Chill Definition


Weather Definition


TIME
00:00 0.5 -3.1 77 11 11   99.12     LegendNANA
01:00 0.4 -2.6 81 11 13   99.04     LegendNANA
02:00 0.1 -2.5 83 12 14   98.93     LegendNANA
03:00 0.1 -2.4 83 11 12   98.89     LegendNANA
04:00 0.3 -2.8 80 12 11   98.82     LegendNANA
05:00 0.5 -3.7 73 11 11   98.75     LegendNANA
06:00 0.3 -3.2 77 12 13   98.63     LegendNANA
07:00 0.2 -3.1 79 12 13   98.51     LegendNANA
08:00 0.4 -3.4 76 13 12   98.39     LegendNANA
09:00 0.8 -3.9 70 12 12   98.29     LegendNANA
10:00 1.4 -3.3 71 12 14   98.16     LegendNANA
11:00 1.8 -2.9 71 12 15   98.02     LegendNANA
12:00 2.7 -1.8 72 12 14   97.87     LegendNANA
13:00 3.0 -2.4 68 12 13   97.72     LegendNANA
14:00 2.9 -3.9 61 13 13   97.63     LegendNANA
15:00 3.0 -3.8 61 14 15   97.51     LegendNANA
16:00 3.2 -3.8 60 14 13   97.47     LegendNANA
17:00 3.2 -3.4 62 13 8   97.39     LegendNANA
18:00 3.1 -3.4 62 12 7   97.24     LegendNANA
19:00 3.1 -2.3 68 13 7   97.20     LegendNANA
20:00 2.7 -1.6 73 14 6   97.12     LegendNANA
21:00 2.4 -1.0 78 12 6   97.04     LegendNANA
22:00 2.0 -0.7 82 13 4   96.98     LegendNANA
23:00 1.6 0.2 90 10 7   96.88     LegendNANA

Notes on Data Quality.

Legend

  • E = Estimated
  • M = Missing
  • NA = Not Available
  • ‡ = Partner data that is not subject to review by the National Climate Archives
Date modified: